STARLINK-1277, 45369

Orbit data source: Space-Track

STARLINK-1277, 45369 is a payload satellite owned by SpaceX/Seattle (US) in LEO that was launched on Wed, 18 Mar 2020 UTC via an FALCON 9 launch vehicle from the Air Force Eastern Test Range (AFETR). Payload-class satellites include a variety of spacecraft equipped with specific instruments for various scientific and technological missions. These include communications satellites like Starlink; space stations such as the ISS; scientific satellites like the Hubble; Earth observation satellites from companies like Planet Labs, Umbra, and HawkEye 360; GPS; miniature CubeSats for education and research; and military/defense satellites.

Loading next visibility...
Identifier
45369, 2020-019K
Orbit
LEO
Country
Flag of USUS
Related business
Manufacturer
SpaceX/Seattle
Mission
Partially operational Commercial Communications
Bus & Motor
STARLINK, Unknown motor
Mass
260 kg wet, ~248 kg dry
Launch date (UTC)
2020-03-18 (6 years ago)
Launch vehicle
FALCON 9
Launch site
Air Force Eastern Test Range (AFETR)
Object type
Payload
Rocket body
Debris
Shape & HBR
Box + 1 Pan, 10.1 m
Radar Cross Section
13.562 m², Large (>1 m²)

Expand to show TLE details & history
Last TLE update: 7 hours ago

TLE from 7 hours ago
0 STARLINK-1277
1 45369U 20019K   26170.58628450  .00143950  00000-0  13541-2 0  9991
2 45369  53.0415  17.9961 0003704  74.1266 286.0157 15.66169357345819
Epoch: 2026-06-19T14:04Z
TLE epoch observation values (Epoch: 2026-06-19T14:04:14.980Z)
Latitude
-0.00003°
Longitude
-100.87947°
Altitude
370.09 km
Speed
7.689 km/s
True Right ascension
01h 11m 59s
True Declination
0° 00' 00"
Sunlit
Object was in daylight at epoch
Visualization orbit readout
Latitude
Unknown
Longitude
Unknown
Altitude
Unknown
Speed
Unknown
Apparent Right ascension
Unknown
Apparent Declination
Unknown
Sunlit
N/A
Visualization observer readout
Local Sidereal Time
08:03:59
Azimuth
Unknown
Elevation
Unknown
Doppler factor
Unknown
Orbital elements
Apogee altitude
372.657 km
Perigee altitude
367.658 km
Semi-major axis
6,748.295 km
Eccentricity
0.00037
Inclination
53.0415°
RAAN
17.9961°
Arg. of periapsis
74.1266°
True anomaly
285.9749°
Mean anomaly
286.0157°
Eccentric anomaly
285.9953°
Mean motion
3.91518 °/min
Orbital period
91.95 mins
BSTAR
0.0013541
Loading maneuver chart data...
Computing Atmospheric mass density...

Documentation

Showing up to 5 results
|